星链-32513 (STARLINK-32513)

导读

STARLINK-32513是美国SpaceX公司星链(Starlink)卫星互联网项目中的一员,于2024年11月14日发射入轨,归入低地球轨道卫星星座。星链项目旨在为全球尤其是偏远地区提供高速低延迟宽带互联网服务,该卫星继承了星链先进技术设计,将参与构建全球规模最大的低轨通信网络,助力实现天地一体化无缝互联覆盖。

基本信息
目录编号:
61964
目录名称:
STARLINK-32513
国际标识:
2024-210F
轨道中心:
EARTH
卫星名称:
星链-32513
卫星全名:
星链-32513 (STARLINK-32513)
卫星状态:
在轨 (已飞行659 天)
发射日期:
2024-11-14 UTC
国别 :
美国 (US)
星等 :
--
轨道信息
数据来源 国际轨道数据
星历时间: 2026-09-01T18:09:44+0800
2天前
查看轨道信息
半长轴: 6861.176km
偏心率: 0.0001692
轨道倾角: 43.002°
近地点辐角 265.134°
升交点赤经 252.886°
平近点角 94.932°
近地点: 481.878km
远地点: 484.2km
周期: 94.267分钟
每日圈数: 15.275834
详细信息
固有亮度:
5
最大亮度:
2.5
卫星平台:
Starlink V1.0
覆盖范围:
全球
运营商:
太空探索技术公司
运营商所在国:
美国
制造商(研发单位):
太空探索技术公司
制造商所在国:
美国
使用方式:
暂无
卫星简介
Starlink 计划是 SpaceX 推出的全球卫星互联网项目,通过发射低轨道卫星,为全球尤其是偏远地区提供高速、低延迟的互联网服务。自 2019 年起,Starlink 已部署数千颗卫星,旨在缩小全球数字鸿沟,推动互联网普及。该项目还为军事、航空等行业提供通信支持,带来广泛经济效益。
2D轨道图
3D轨道图
轨道高度分析图
轨道倾角分析图
轨道综合分析图
查看轨道综合分析图
交会数据列表
事件ID 空间交会对象 最接近时刻(TCA) 交会距离 交会风险概率(CRP) 交会风险指数(CRI) 操作
CDM_260904-112005-861906-196421
2026-09-04T
11:20:52+0000
0.347 km
远距离
3.024873E-4 高风险 0.85
CDM_260904-094605-861906-196421
2026-09-04T
09:46:43+0000
1.231 km
极远距离
8.455339E-6 低风险 0.54
CDM_260904-125505-861906-196421
2026-09-04T
12:55:01+0000
1.568 km
极远距离
3.803569E-6 低风险 0.47
CDM_260904-062306-196406-629523
2026-09-04T
06:23:17+0000
1.926 km
极远距离
2.553273E-6 低风险 0.43
CDM_260905-013705-826406-196421
BRO-11 (58264)
2026-09-05T
01:37:46+0000
2.346 km
极远距离
1.69304E-6 低风险 0.4
CDM_260903-193806-196406-308021
2026-09-03T
19:38:30+0000
1.907 km
极远距离
1.540268E-6 低风险 0.39
CDM_260904-081205-861906-196421
2026-09-04T
08:12:34+0000
2.565 km
极远距离
1.159109E-6 低风险 0.36
CDM_260904-142905-861906-196421
2026-09-04T
14:29:10+0000
2.930 km
极远距离
9.626348E-7 极低风险 0.35